[[{"header":{"parameterUnit":"m.s-1","parameterCategory":2,"la1":30.2991,"la2":30.254,"lo1":-89.0895,"lo2":-89.0444,"dy":0.0017,"dx":0.0017,"nx":28,"ny":28,"refTime":"2024-02-24T03:00:00:Z","depth":"0","parameterNumber":2,"parameterNumberName":"U-component_of_CURRENTS"},"data":[0,0,0,0,0,0,0,0,0,0,0,0,0,0,0,0,0,0,0,0,0,0,0,0,0,0,0,0,0,0,0,0,0,0,0,0,0,0,0,0,0,0,0,0,0,0,0,0,0,0,0,0,0,0,0,0,0,0,0.2896,0.2897,0,0.2981,0.2982,0.2983,0.3005,0.3004,0.3004,0.3004,0.3007,0.3007,0.3008,0,0,0,0,0,0,0,0,0,0,0,0,0,0.2811,0.2812,0.2896,0.2897,0.2898,0.2981,0.2982,0.2983,0.3005,0.3004,0.3004,0.3004,0.3007,0.3007,0.3008,0,0,0,0,0,0,0,0,0,0,0,0,0,0.2865,0.2812,0.2896,0.2921,0.2924,0.2981,0.2982,0.2983,0.3005,0.3004,0.3004,0.3003,0.3006,0.3007,0.3008,0.3022,0,0,0.3009,0.301,0,0,0,0,0,0,0,0,0.2862,0.2868,0.2916,0.2919,0.2923,0.2983,0.2953,0.2993,0.3005,0.2972,0.3004,0.3003,0.2993,0.2995,0.301,0.3022,0.3022,0.301,0.301,0.301,0.301,0,0,0,0,0,0,0,0.2858,0.2865,0.2928,0.2917,0.2922,0.2948,0.2954,0.2961,0.2981,0.2975,0.2977,0.299,0.2994,0.301,0.301,0.3022,0.3009,0.301,0.301,0.3011,0.3061,0.3062,0,0,0,0,0,0,0.2849,0.2861,0.2925,0.293,0.2893,0.295,0.2957,0.2963,0.2983,0.2987,0.299,0.2991,0.3009,0.301,0.301,0.3028,0.301,0.3011,0.3011,0.306,0.3062,0.3063,0,0,0,0,0,0,0.2847,0.2854,0.2922,0.2899,0.291,0.2951,0.2958,0.2965,0.2985,0.2996,0.2998,0.3004,0.3009,0.3009,0.3022,0.3028,0.3011,0.3012,0.3059,0.3061,0.3062,0.3063,0,0,0,0,0,0,0.2844,0.2852,0.2855,0.2899,0.2911,0.2951,0.2959,0.2967,0.2994,0.2995,0.3008,0.3008,0.3008,0.3021,0.3023,0.3029,0.3012,0.3058,0.306,0.3062,0.3062,0.3065,0.3067,0,0,0,0,0,0.284,0.2844,0.2855,0.2863,0.2913,0.2951,0.296,0.2987,0.2995,0.3003,0.3016,0.3008,0.3034,0.3023,0.3024,0.303,0.3057,0.3059,0.3061,0.3061,0.3064,0.3067,0,0,0,0,0,0,0.281,0.2849,0.2861,0.2876,0.291,0.2955,0.2968,0.2991,0.3011,0.3008,0.3018,0.3019,0.3035,0.3037,0.3024,0.3053,0.3045,0.3048,0.3044,0.3047,0.305,0.304,0.3012,0,0,0,0,0,0.2806,0.2816,0.2859,0.2872,0.2887,0.2929,0.295,0.2968,0.2994,0.3003,0.3014,0.3028,0.3047,0.3049,0.3061,0.3074,0.3096,0.3081,0.3084,0.3086,0.3081,0.3123,0.3129,0.307,0.307,0.307,0,0,0.2799,0.2821,0.2828,0.2867,0.2893,0.2923,0.2939,0.2967,0.2987,0.2998,0.3019,0.3035,0.3054,0.307,0.3077,0.307,0.312,0.3088,0.309,0.3084,0.3126,0.3132,0.3137,0.3071,0.3071,0.3071,0,0,0.2793,0.2809,0.2817,0.2846,0.2885,0.2915,0.2924,0.2967,0.2977,0.3,0.3021,0.304,0.3059,0.308,0.3092,0.3117,0.3134,0.3124,0.3122,0.3164,0.3169,0.3173,0.3231,0.324,0.3121,0.3121,0.3121,0,0.2786,0.2801,0.2827,0.2847,0.2866,0.2912,0.2928,0.2958,0.2998,0.3008,0.2999,0.3056,0.3063,0.3106,0.3111,0.312,0.3154,0.3106,0.3166,0.3171,0.3175,0.3233,0.3243,0.3122,0.3122,0.3122,0.3122,0,0.2791,0.2806,0.2814,0.2853,0.2876,0.2897,0.2938,0.2959,0.2974,0.3006,0.3037,0.3056,0.3092,0.31,0.3107,0.3152,0.3172,0.3166,0.3154,0.3181,0.3241,0.3252,0.3122,0.3122,0.3122,0.3122,0,0,0.2769,0.2808,0.2811,0.2827,0.2875,0.2898,0.2925,0.2966,0.3001,0.302,0.3057,0.3081,0.3102,0.3119,0.3142,0.3167,0.3229,0.3176,0.3178,0.3226,0.3342,0.3322,0.3332,0.3235,0.3237,0.3238,0.3378,0,0.2766,0.279,0.2809,0.2842,0.2859,0.2896,0.2927,0.2968,0.3002,0.3053,0.3076,0.3125,0.3111,0.3136,0.3159,0.3224,0.3255,0.3193,0.3314,0.3318,0.3291,0.3342,0.3218,0.3329,0.3389,0.3391,0.3392,0,0.2762,0.278,0.2794,0.2836,0.2847,0.2875,0.2927,0.2966,0.3044,0.3068,0.3113,0.3151,0.3212,0.3184,0.329,0.3256,0.3291,0.3325,0.3331,0.3315,0.3317,0.3309,0.3347,0.3269,0.3409,0.3407,0.3406,0,0.2728,0.2769,0.2773,0.2789,0.2848,0.2855,0.2897,0.2967,0.3004,0.3096,0.3137,0.3208,0.3264,0.331,0.3373,0.3343,0.3487,0.3459,0.3476,0.3477,0.3394,0.3384,0.3358,0.3515,0.3515,0.3514,0.3514,0,0.2711,0.272,0.2763,0.277,0.2798,0.2843,0.2886,0.2942,0.3024,0.3087,0.3155,0.3214,0.3294,0.338,0.3412,0.3494,0.3526,0.3489,0.3511,0.3394,0.3382,0.3328,0.3292,0.3519,0.3518,0.3517,0.3516,0,0.2669,0.2693,0.2712,0.2762,0.2779,0.2804,0.2876,0.2924,0.3009,0.3095,0.3126,0.325,0.3366,0.3446,0.3554,0.3559,0.3534,0.3638,0.3506,0.3507,0.3419,0.3388,0.3267,0.3177,0.3682,0.3683,0.3683,0,0.2642,0.2647,0.2699,0.2718,0.2738,0.2782,0.282,0.2903,0.2958,0.3109,0.3153,0.3292,0.3374,0.3547,0.3592,0.3674,0.3548,0.3595,0.3492,0.3407,0.339,0.3236,0.3157,0.3403,0.3401,0.3399,0.3398,0,0.2606,0.2626,0.2655,0.2699,0.2731,0.2759,0.2821,0.285,0.2963,0.3033,0.3139,0.3216,0.3394,0.3431,0.3555,0.3577,0.3418,0.3562,0.35,0.319,0.2994,0.2919,0.3338,0.3383,0.3385,0.3386,0.3386,0.3387,0.2587,0.2607,0.2658,0.2687,0.2719,0.2733,0.2725,0.2795,0.2852,0.292,0.3055,0.312,0.3256,0.341,0.341,0.3358,0.3332,0.3273,0.3258,0.3121,0.2964,0.336,0.3404,0.3405,0.3407,0.3408,0.3409,0,0.2572,0.2608,0.2645,0.2671,0.267,0.27,0.2722,0.2687,0.2702,0.2797,0.2856,0.2971,0.3029,0.3106,0.3159,0.3078,0.2909,0.3001,0.2747,0.2697,0.3087,0.3004,0.2929,0.2929,0.293,0.293,0.293,0.293,0.2572,0.2604,0.2619,0.2609,0.2617,0.2557,0.2535,0.2495,0.2517,0.2507,0.2544,0.2646,0.2848,0.295,0.2894,0.2829,0.2621,0.2509,0.2508,0.2792,0.2814,0.2836,0.2748,0.2621,0.262,0.1983,0.1978,0.1975]},{"header":{"parameterUnit":"m.s-1","parameterCategory":2,"la1":30.2991,"la2":30.254,"lo1":-89.0895,"lo2":-89.0444,"dy":0.0017,"dx":0.0017,"nx":28,"ny":28,"refTime":"2024-02-24T03:00:00:Z","depth":"0","parameterNumber":3,"parameterNumberName":"V-component_of_CURRENTS"},"data":[0,0,0,0,0,0,0,0,0,0,0,0,0,0,0,0,0,0,0,0,0,0,0,0,0,0,0,0,0,0,0,0,0,0,0,0,0,0,0,0,0,0,0,0,0,0,0,0,0,0,0,0,0,0,0,0,0,0,0.0033,0.0033,0,-0.003,-0.003,-0.0031,-0.0079,-0.0079,-0.0079,-0.0079,-0.0143,-0.0144,-0.0146,0,0,0,0,0,0,0,0,0,0,0,0,0,0.0067,0.0066,0.0033,0.0033,0.0032,-0.003,-0.0031,-0.0032,-0.0079,-0.0079,-0.0079,-0.008,-0.0143,-0.0144,-0.0146,0,0,0,0,0,0,0,0,0,0,0,0,0,0.0032,0.0066,0.0033,0.0002,-0.0001,-0.0029,-0.0031,-0.0032,-0.0078,-0.0079,-0.0079,-0.008,-0.0142,-0.0144,-0.0146,-0.015,0,0,-0.0153,-0.0153,0,0,0,0,0,0,0,0,0.0034,0.003,0.0007,0.0004,0.0,-0.0046,-0.0042,-0.0071,-0.0078,-0.0051,-0.0079,-0.008,-0.0109,-0.0114,-0.0127,-0.0153,-0.0156,-0.0153,-0.0154,-0.0155,-0.0156,0,0,0,0,0,0,0,0.0036,0.0032,0.0007,0.0007,0.0002,-0.0024,-0.003,-0.0048,-0.0078,-0.0053,-0.0056,-0.0061,-0.0111,-0.0125,-0.0129,-0.0157,-0.0153,-0.0155,-0.0156,-0.0157,-0.019,-0.0189,0,0,0,0,0,0,0.005,0.0035,0.0009,0.0005,0.0018,-0.0024,-0.003,-0.0031,-0.0078,-0.0085,-0.006,-0.0063,-0.0121,-0.0126,-0.0131,-0.0116,-0.0155,-0.0157,-0.0158,-0.019,-0.019,-0.0189,0,0,0,0,0,0,0.0051,0.0048,0.0011,0.0019,0.0013,-0.0024,-0.0025,-0.0032,-0.0042,-0.0083,-0.009,-0.0061,-0.0121,-0.0128,-0.0139,-0.012,-0.0158,-0.016,-0.0191,-0.019,-0.0189,-0.01,0,0,0,0,0,0,0.0052,0.0049,0.0053,0.0021,0.0013,0.001,-0.0025,-0.0033,-0.0043,-0.0047,-0.0086,-0.0093,-0.0122,-0.0136,-0.0141,-0.0123,-0.0161,-0.0191,-0.019,-0.019,-0.0104,-0.0097,-0.0091,0,0,0,0,0,0.0054,0.0067,0.0054,0.0051,0.002,0.0011,0.0006,-0.0024,-0.0043,-0.0036,-0.0067,-0.0092,-0.0135,-0.0137,-0.0143,-0.0126,-0.0191,-0.0191,-0.019,-0.0107,-0.0098,-0.0091,0,0,0,0,0,0,0.0084,0.0063,0.0048,0.0054,0.004,0.0004,0.0005,-0.0016,-0.0036,-0.0041,-0.0083,-0.0092,-0.0098,-0.0125,-0.0125,-0.0136,-0.0169,-0.0169,-0.0103,-0.0096,-0.0089,-0.0067,-0.0163,0,0,0,0,0,0.0094,0.0096,0.0073,0.0077,0.0074,0.004,0.0032,0.0014,-0.0009,-0.0019,-0.0047,-0.0079,-0.0101,-0.0107,-0.0134,-0.0132,-0.0155,-0.0128,-0.0121,-0.0115,-0.0103,-0.0127,-0.0121,-0.0186,-0.0186,-0.0186,0,0,0.0104,0.0094,0.0094,0.0084,0.0067,0.0077,0.0034,0.0031,0.0038,-0.0022,-0.0021,-0.0058,-0.0098,-0.01,-0.0105,-0.0117,-0.0108,-0.0114,-0.0109,-0.0099,-0.0126,-0.0119,-0.0113,-0.0186,-0.0186,-0.0186,0,0,0.0135,0.0122,0.0137,0.0131,0.0118,0.0105,0.011,0.0083,0.0071,0.0067,0.0022,0.0003,-0.003,-0.0051,-0.0066,-0.0039,-0.0078,-0.0053,0.0007,-0.0016,-0.0011,-0.0006,-0.0017,-0.0014,-0.0043,-0.0043,-0.0043,0,0.0149,0.0165,0.0141,0.0156,0.016,0.0126,0.0149,0.0136,0.0109,0.0107,0.008,0.0032,-0.0003,-0.0003,0.0003,-0.0021,-0.0041,-0.0015,-0.0006,-0.0002,0.0001,-0.0011,-0.0009,-0.0038,-0.0039,-0.0039,-0.004,0,0.019,0.0204,0.0215,0.0225,0.0229,0.0243,0.0228,0.0226,0.0207,0.0191,0.018,0.0128,0.0101,0.0085,0.0053,0.006,0.0038,0.0002,-0.0019,0.0014,-0.0002,-0.0001,-0.0032,-0.0034,-0.0035,-0.0036,0,0,0.0221,0.0241,0.0244,0.0264,0.0268,0.0278,0.0296,0.0307,0.0327,0.0287,0.0307,0.0256,0.0221,0.02,0.0153,0.0136,0.014,0.0087,0.0084,0.0088,0.0099,0.0099,0.0098,0.0104,0.0105,0.0105,0.0083,0,0.0262,0.0309,0.0309,0.036,0.0386,0.037,0.0397,0.0399,0.0391,0.0402,0.0346,0.0339,0.0268,0.0257,0.0229,0.0163,0.0144,0.015,0.0056,0.0053,0.0058,0.01,0.011,0.0093,0.0083,0.0083,0.0083,0,0.0305,0.0333,0.0391,0.0436,0.0447,0.0477,0.0516,0.0535,0.0537,0.0529,0.0507,0.0456,0.0425,0.0354,0.0268,0.0274,0.0197,0.0141,0.0138,0.0108,0.0054,0.0053,0.0093,-0.0058,0.0084,0.0084,0.0084,0,0.0343,0.0392,0.0445,0.0458,0.0502,0.053,0.0557,0.0576,0.0613,0.0611,0.0638,0.0569,0.0555,0.0446,0.0324,0.0293,0.0234,0.0172,0.01,0.0099,0.0075,0.0072,-0.0033,0.011,0.011,0.011,0.011,0,0.0389,0.0429,0.047,0.0498,0.0576,0.0584,0.0667,0.0678,0.0719,0.0794,0.071,0.0745,0.0577,0.0515,0.0376,0.0261,0.027,0.0128,0.0098,0.0107,0.0107,-0.0054,-0.0131,0.0109,0.0109,0.0109,0.0109,0,0.0424,0.0447,0.0513,0.0571,0.0599,0.0655,0.0747,0.0807,0.0834,0.0928,0.0932,0.0887,0.0811,0.0648,0.0489,0.0351,0.0144,0.017,0.0201,0.0176,-0.0048,-0.0118,-0.0231,-0.029,0.0083,0.0083,0.0083,0,0.0447,0.0486,0.0568,0.0623,0.0657,0.0741,0.0811,0.086,0.0937,0.1027,0.1083,0.1035,0.1032,0.0807,0.0548,0.0323,0.0168,0.0169,0.0103,-0.0039,-0.0141,-0.0197,-0.0242,0.0106,0.0106,0.0106,0.0106,0,0.0499,0.0527,0.0584,0.0693,0.0777,0.0876,0.0979,0.1057,0.1141,0.1229,0.1329,0.1333,0.113,0.0901,0.0586,0.0419,0.0076,0.0164,0.0003,-0.0132,-0.0185,-0.0261,0.0103,0.0107,0.0107,0.0107,0.0107,0.0107,0.0541,0.0594,0.0674,0.0776,0.0875,0.1005,0.1097,0.1221,0.1364,0.1505,0.1499,0.1543,0.1218,0.0792,0.0535,0.0082,0.0079,-0.0077,-0.0149,-0.0192,-0.0255,0.0126,0.0103,0.0103,0.0103,0.0103,0.0103,0,0.0601,0.0661,0.0756,0.0883,0.0992,0.1037,0.1208,0.1313,0.1495,0.162,0.1701,0.1591,0.118,0.0757,0.0151,-0.0186,-0.0305,-0.0359,-0.0457,-0.0488,-0.0165,-0.0172,-0.0237,-0.0236,-0.0236,-0.0236,-0.0236,-0.0236,0.064,0.0734,0.0779,0.0959,0.105,0.1208,0.1309,0.1471,0.1595,0.1748,0.179,0.1799,0.1512,0.0427,-0.0325,-0.0496,-0.0717,-0.0759,-0.087,-0.0681,-0.0662,-0.0643,-0.0669,-0.0837,-0.0838,-0.1162,-0.1165,-0.1168]}],[{"header":{"parameterUnit":"m.s-1","parameterCategory":2,"la1":30.2991,"la2":30.254,"lo1":-89.0895,"lo2":-89.0444,"dy":0.0017,"dx":0.0017,"nx":28,"ny":28,"refTime":"2024-02-24T03:00:00:Z","depth":"2","parameterNumber":2,"parameterNumberName":"U-component_of_CURRENTS"},"data":[0,0,0,0,0,0,0,0,0,0,0,0,0,0,0,0,0,0,0,0,0,0,0,0,0,0,0,0,0,0,0,0,0,0,0,0,0,0,0,0,0,0,0,0,0,0,0,0,0,0,0,0,0,0,0,0,0,0,0.2249,0.2249,0,0.2269,0.2269,0.2269,0.2286,0.2286,0.2287,0.2287,0.2311,0.2311,0.2311,0,0,0,0,0,0,0,0,0,0,0,0,0,0.2198,0.2199,0.2249,0.2249,0.225,0.2269,0.2269,0.2269,0.2286,0.2286,0.2287,0.2288,0.2311,0.2311,0.2311,0,0,0,0,0,0,0,0,0,0,0,0,0,0.2215,0.2199,0.2248,0.2264,0.2266,0.2269,0.2269,0.2269,0.2285,0.2286,0.2287,0.2288,0.2311,0.2311,0.2311,0.2294,0,0,0.2311,0.2311,0,0,0,0,0,0,0,0,0.2214,0.2216,0.2261,0.2263,0.2265,0.228,0.226,0.2279,0.2285,0.2273,0.2287,0.2289,0.2303,0.2304,0.2299,0.2295,0.2296,0.2311,0.2311,0.2311,0.2311,0,0,0,0,0,0,0,0.2213,0.2216,0.2252,0.2262,0.2264,0.2261,0.2264,0.2263,0.2279,0.2274,0.2277,0.2286,0.2304,0.2299,0.23,0.2296,0.2311,0.2311,0.2312,0.2312,0.236,0.2361,0,0,0,0,0,0,0.222,0.2214,0.2252,0.2253,0.2246,0.2262,0.2265,0.227,0.228,0.2283,0.2285,0.2287,0.2298,0.23,0.2301,0.2344,0.2311,0.2312,0.2312,0.2359,0.236,0.2361,0,0,0,0,0,0,0.2219,0.2223,0.2251,0.2238,0.2242,0.2262,0.2268,0.2271,0.2283,0.2289,0.2291,0.2298,0.2299,0.2301,0.2325,0.2343,0.2312,0.2312,0.2357,0.2359,0.2361,0.239,0,0,0,0,0,0,0.2217,0.2222,0.2227,0.2238,0.2243,0.2269,0.2268,0.227,0.2289,0.2291,0.23,0.2302,0.23,0.2325,0.2326,0.2342,0.2312,0.2356,0.2358,0.236,0.2387,0.2392,0.2397,0,0,0,0,0,0.2215,0.222,0.2227,0.2231,0.2249,0.227,0.2272,0.2286,0.2289,0.2299,0.2312,0.2303,0.234,0.2326,0.2326,0.2343,0.2355,0.2357,0.236,0.2385,0.2391,0.2397,0,0,0,0,0,0,0.22,0.2223,0.223,0.2242,0.2263,0.2275,0.2283,0.2293,0.2308,0.2311,0.2314,0.2317,0.2347,0.2343,0.2327,0.2366,0.2347,0.235,0.2367,0.2372,0.2377,0.2381,0.2312,0,0,0,0,0,0.2199,0.2209,0.2233,0.2244,0.2255,0.227,0.228,0.2292,0.2308,0.2315,0.2325,0.2337,0.2354,0.2362,0.2373,0.2387,0.2397,0.2401,0.2406,0.241,0.2415,0.2443,0.2451,0.237,0.237,0.237,0,0,0.2197,0.2211,0.2217,0.2242,0.2255,0.2275,0.2277,0.2298,0.2318,0.2314,0.2342,0.2354,0.2364,0.2388,0.24,0.2388,0.2442,0.2413,0.2417,0.2419,0.2447,0.2454,0.2461,0.2372,0.2372,0.2372,0,0,0.2196,0.2211,0.2219,0.224,0.2269,0.2282,0.2294,0.2317,0.2331,0.2356,0.2367,0.2393,0.2407,0.2424,0.2432,0.2468,0.2468,0.2473,0.2495,0.2523,0.2529,0.2535,0.257,0.2579,0.2472,0.2472,0.2472,0,0.2194,0.2206,0.2226,0.2244,0.2259,0.2289,0.2304,0.2327,0.2357,0.2371,0.2372,0.2416,0.2424,0.2461,0.2479,0.2478,0.2497,0.247,0.2528,0.2534,0.254,0.2574,0.2583,0.2474,0.2474,0.2474,0.2474,0,0.2201,0.2216,0.2225,0.2257,0.2276,0.2296,0.2332,0.2357,0.2376,0.2398,0.244,0.2457,0.2484,0.2494,0.2497,0.2545,0.2548,0.2532,0.2511,0.2549,0.2583,0.2592,0.2477,0.2476,0.2475,0.2475,0,0,0.2182,0.222,0.2224,0.224,0.2282,0.2301,0.2337,0.2375,0.2412,0.2439,0.2479,0.251,0.2528,0.254,0.2553,0.2577,0.2637,0.2575,0.2576,0.2605,0.2711,0.2661,0.2666,0.2632,0.2634,0.2635,0.2723,0,0.2181,0.2206,0.2225,0.2259,0.2275,0.2311,0.2347,0.239,0.243,0.2483,0.2508,0.2559,0.2545,0.2573,0.2594,0.2636,0.2661,0.2615,0.2674,0.2676,0.2622,0.2675,0.2465,0.2521,0.2732,0.2733,0.2735,0,0.2177,0.2196,0.2215,0.2262,0.2274,0.2302,0.2363,0.2405,0.2483,0.2515,0.2561,0.2595,0.2654,0.2632,0.2706,0.268,0.2699,0.2718,0.2721,0.2669,0.2642,0.2515,0.2529,0.275,0.2748,0.2747,0.2746,0,0.2147,0.219,0.2201,0.2217,0.2276,0.2294,0.2337,0.2411,0.2455,0.2552,0.2594,0.2658,0.2706,0.2736,0.2774,0.2753,0.2849,0.2821,0.279,0.2787,0.2616,0.2595,0.2862,0.2862,0.2862,0.2862,0.2861,0,0.2131,0.2145,0.2193,0.2203,0.2238,0.2288,0.2342,0.24,0.2486,0.2545,0.2618,0.2672,0.2736,0.2791,0.2806,0.2834,0.2874,0.2809,0.2809,0.2622,0.2602,0.2798,0.2789,0.2865,0.2864,0.2864,0.2863,0,0.2092,0.2119,0.2143,0.2201,0.2222,0.2254,0.2337,0.2382,0.2477,0.2558,0.2592,0.2706,0.2788,0.2836,0.2907,0.2878,0.2908,0.2899,0.2683,0.2655,0.2822,0.2814,0.2886,0.2885,0.2884,0.2883,0.2883,0,0.2069,0.2076,0.2133,0.2149,0.2173,0.2229,0.2264,0.2363,0.2414,0.2567,0.2599,0.272,0.2778,0.2872,0.286,0.2884,0.2916,0.2686,0.2596,0.2833,0.2826,0.2819,0.2813,0.2391,0.2387,0.2383,0.238,0,0.203,0.2051,0.2071,0.2109,0.2141,0.2176,0.224,0.227,0.2391,0.2465,0.2566,0.2633,0.2738,0.2674,0.2711,0.2688,0.2666,0.2611,0.2919,0.2416,0.2373,0.2364,0.2372,0.2347,0.235,0.2352,0.2354,0.2356,0.1999,0.2008,0.2038,0.2063,0.2096,0.211,0.2105,0.2176,0.2236,0.2316,0.2448,0.248,0.2516,0.2477,0.2407,0.2352,0.253,0.2403,0.2412,0.2425,0.235,0.2308,0.2256,0.2259,0.2261,0.2263,0.2265,0,0.1962,0.1978,0.1992,0.2009,0.1997,0.2045,0.2072,0.2046,0.2066,0.2169,0.2239,0.2103,0.2079,0.2108,0.1982,0.1984,0.1937,0.1894,0.1807,0.1844,0.1875,0.1768,0.1522,0.1519,0.1517,0.1514,0,0,0.1945,0.1939,0.1938,0.1899,0.1905,0.1856,0.1842,0.1828,0.1861,0.1854,0.186,0.2024,0.208,0.1784,0.1743,0.1607,0.1707,0.1547,0.2152,0.209,0.2118,0.219,0.207,0,0,0,0,0]},{"header":{"parameterUnit":"m.s-1","parameterCategory":2,"la1":30.2991,"la2":30.254,"lo1":-89.0895,"lo2":-89.0444,"dy":0.0017,"dx":0.0017,"nx":28,"ny":28,"refTime":"2024-02-24T03:00:00:Z","depth":"2","parameterNumber":3,"parameterNumberName":"V-component_of_CURRENTS"},"data":[0,0,0,0,0,0,0,0,0,0,0,0,0,0,0,0,0,0,0,0,0,0,0,0,0,0,0,0,0,0,0,0,0,0,0,0,0,0,0,0,0,0,0,0,0,0,0,0,0,0,0,0,0,0,0,0,0,0,0.0156,0.0155,0,0.0121,0.012,0.012,0.0087,0.0086,0.0086,0.0086,0.0035,0.0034,0.0033,0,0,0,0,0,0,0,0,0,0,0,0,0,0.0169,0.0169,0.0156,0.0155,0.0155,0.0121,0.012,0.012,0.0087,0.0086,0.0086,0.0085,0.0035,0.0034,0.0033,0,0,0,0,0,0,0,0,0,0,0,0,0,0.0151,0.0169,0.0156,0.0135,0.0133,0.0121,0.012,0.0119,0.0087,0.0086,0.0086,0.0085,0.0035,0.0034,0.0032,0.0034,0,0,0.0028,0.0027,0,0,0,0,0,0,0,0,0.0152,0.0151,0.0138,0.0136,0.0134,0.0108,0.0106,0.009,0.0087,0.0104,0.0086,0.0085,0.0059,0.0055,0.0049,0.0031,0.0029,0.0028,0.0027,0.0026,0.0026,0,0,0,0,0,0,0,0.0153,0.0152,0.0141,0.0138,0.0135,0.0119,0.0116,0.0103,0.0084,0.0102,0.01,0.0097,0.0057,0.0051,0.0048,0.0028,0.0028,0.0026,0.0025,0.0025,-0.0008,-0.0008,0,0,0,0,0,0,0.0161,0.0153,0.0142,0.014,0.0143,0.0119,0.0116,0.0116,0.0084,0.0079,0.0098,0.0096,0.0053,0.0049,0.0046,0.0047,0.0026,0.0025,0.0024,-0.0008,-0.0008,-0.0008,0,0,0,0,0,0,0.0162,0.0161,0.0144,0.0146,0.0143,0.012,0.012,0.0116,0.011,0.0081,0.0075,0.0096,0.0053,0.0048,0.0038,0.0045,0.0024,0.0022,-0.0008,-0.0008,-0.0008,0.0049,0,0,0,0,0,0,0.0162,0.0161,0.0164,0.0147,0.0143,0.0144,0.0121,0.0116,0.0109,0.0107,0.0078,0.0073,0.0052,0.004,0.0036,0.0042,0.0021,-0.0008,-0.0008,-0.0008,0.0047,0.0051,0.0054,0,0,0,0,0,0.0163,0.0174,0.0165,0.0163,0.0148,0.0144,0.0141,0.0122,0.011,0.0113,0.0092,0.0074,0.0037,0.004,0.0035,0.004,-0.0008,-0.0008,-0.0008,0.0045,0.005,0.0054,0,0,0,0,0,0,0.0181,0.0171,0.0161,0.0168,0.0159,0.0139,0.014,0.0127,0.0113,0.011,0.008,0.0073,0.0065,0.0045,0.0047,0.0029,0.0009,0.0009,0.0052,0.0056,0.0059,0.0078,0.002,0,0,0,0,0,0.0187,0.0192,0.0178,0.0183,0.0181,0.0161,0.0157,0.0145,0.0131,0.0124,0.0103,0.0079,0.0062,0.0053,0.0035,0.003,0.0006,0.0028,0.0031,0.0035,0.0045,0.0011,0.0013,-0.0008,-0.0008,-0.0008,0,0,0.0195,0.019,0.0192,0.0187,0.0177,0.0186,0.0157,0.0157,0.0162,0.0121,0.012,0.0093,0.0063,0.0056,0.005,0.0041,0.0027,0.0035,0.0038,0.0047,0.0011,0.0013,0.0015,-0.0008,-0.0008,-0.0008,0,0,0.0218,0.021,0.0223,0.022,0.0213,0.0206,0.0209,0.0192,0.0182,0.018,0.0148,0.0127,0.0104,0.0082,0.0069,0.0082,0.0048,0.0072,0.0108,0.0074,0.0076,0.0077,0.005,0.0048,0.0074,0.0074,0.0074,0,0.0227,0.0242,0.0226,0.0239,0.0245,0.0219,0.0239,0.0228,0.021,0.0206,0.0187,0.0146,0.0118,0.0108,0.011,0.0091,0.0069,0.0096,0.008,0.0081,0.0081,0.0053,0.005,0.0077,0.0076,0.0076,0.0076,0,0.026,0.0272,0.0281,0.0292,0.0296,0.0309,0.0297,0.0293,0.0278,0.0264,0.0247,0.0204,0.0181,0.0163,0.0142,0.013,0.0113,0.009,0.0073,0.0087,0.0055,0.0052,0.0081,0.008,0.0079,0.0078,0,0,0.0281,0.0302,0.0305,0.0322,0.0328,0.0337,0.0347,0.0351,0.0363,0.0327,0.0333,0.0288,0.0259,0.0242,0.0203,0.0172,0.0149,0.0138,0.0135,0.012,0.0081,0.0062,0.0056,0.0123,0.0123,0.0123,0.0059,0,0.0313,0.0354,0.0356,0.0397,0.042,0.0408,0.0426,0.0423,0.0411,0.0409,0.0353,0.0344,0.0291,0.0282,0.0242,0.0177,0.0142,0.0169,0.0063,0.006,0.0049,0.0052,0.0077,0.0022,0.0055,0.0055,0.0054,0,0.0347,0.0372,0.0421,0.0458,0.0468,0.0492,0.0518,0.053,0.0517,0.0506,0.0477,0.0434,0.0388,0.0338,0.0231,0.0252,0.0175,0.0116,0.0112,0.0074,0.0035,0.0012,0.0014,0.0048,0.0048,0.0049,0.0049,0,0.0376,0.0418,0.0463,0.0475,0.0512,0.0534,0.0555,0.0561,0.0586,0.0569,0.0582,0.0509,0.0485,0.0377,0.0253,0.0242,0.0134,0.0099,0.0008,0.0006,-0.0003,-0.0005,0.0021,0.0021,0.0021,0.0021,0.0021,0,0.0412,0.0445,0.0483,0.0507,0.0571,0.0578,0.0641,0.0646,0.0667,0.0713,0.0639,0.0649,0.0495,0.0412,0.0283,0.0142,0.0152,0.002,-0.0011,0.0017,0.0017,0.0014,0.0014,0.0019,0.0019,0.002,0.002,0,0.0437,0.0458,0.0515,0.0565,0.0589,0.0635,0.0709,0.0751,0.0763,0.0818,0.0818,0.0756,0.0649,0.0487,0.0316,0.0193,0.0049,-0.0006,0.0041,0.0017,-0.0065,-0.0061,-0.0115,-0.0116,-0.0117,-0.0118,-0.0119,0,0.0453,0.0486,0.056,0.0606,0.0635,0.0706,0.0762,0.0798,0.0851,0.0889,0.0921,0.0838,0.0792,0.0532,0.03,0.0071,0.0043,-0.0054,-0.0078,-0.0054,-0.0079,-0.0073,-0.0068,-0.0069,-0.0069,-0.0069,-0.007,0,0.049,0.0517,0.0566,0.066,0.073,0.0813,0.0895,0.0951,0.1004,0.105,0.1088,0.1052,0.0813,0.0585,0.0274,0.0121,-0.0018,-0.0066,-0.0053,-0.0036,-0.0015,-0.0038,-0.0034,-0.0071,-0.0071,-0.0071,-0.0071,-0.0071,0.052,0.0566,0.0636,0.0726,0.0808,0.0913,0.0986,0.1072,0.1167,0.124,0.1203,0.1155,0.0903,0.0499,0.0236,-0.004,-0.0033,-0.0128,-0.0126,-0.0123,-0.0104,-0.0086,-0.0151,-0.0152,-0.0152,-0.0152,-0.0152,0,0.0566,0.062,0.0699,0.0809,0.0899,0.0941,0.1072,0.1142,0.1257,0.1313,0.1334,0.1092,0.0836,0.0543,0.0135,-0.0108,-0.0123,-0.0182,-0.0143,-0.014,-0.0137,-0.0118,-0.0169,-0.017,-0.0171,-0.0172,0,0,0.0595,0.0677,0.0718,0.0869,0.0946,0.1072,0.115,0.125,0.1315,0.1364,0.1339,0.1273,0.092,0.0626,0.0297,0.0064,0.0019,0.0018,0.0058,0.0148,0.0153,-0.0079,-0.0042,0,0,0,0,0]}],[{"header":{"parameterUnit":"m.s-1","parameterCategory":2,"la1":30.2991,"la2":30.254,"lo1":-89.0895,"lo2":-89.0444,"dy":0.0017,"dx":0.0017,"nx":28,"ny":28,"refTime":"2024-02-24T03:00:00:Z","depth":"4","parameterNumber":2,"parameterNumberName":"U-component_of_CURRENTS"},"data":[0,0,0,0,0,0,0,0,0,0,0,0,0,0,0,0,0,0,0,0,0,0,0,0,0,0,0,0,0,0,0,0,0,0,0,0,0,0,0,0,0,0,0,0,0,0,0,0,0,0,0,0,0,0,0,0,0,0,0.1394,0.1394,0,0.1437,0.1438,0.1438,0.1471,0.1471,0.1472,0.1472,0.1519,0.1519,0.152,0,0,0,0,0,0,0,0,0,0,0,0,0,0.1337,0.1337,0.1394,0.1394,0.1395,0.1437,0.1438,0.1438,0.1471,0.1471,0.1472,0.1472,0.1518,0.1519,0.152,0,0,0,0,0,0,0,0,0,0,0,0,0,0.1367,0.1337,0.1393,0.1418,0.1421,0.1437,0.1438,0.1438,0.147,0.1471,0.1472,0.1473,0.1518,0.1519,0.152,0.1513,0,0,0.1524,0.1525,0,0,0,0,0,0,0,0,0.1365,0.1369,0.1414,0.1416,0.142,0.1451,0.1435,0.1464,0.147,0.1449,0.1472,0.1473,0.1497,0.15,0.1504,0.1515,0.1517,0.1524,0.1525,0.1525,0.1526,0,0,0,0,0,0,0,0.1363,0.1367,0.1409,0.1414,0.1418,0.1427,0.1431,0.144,0.1467,0.1451,0.1454,0.1462,0.1499,0.1502,0.1505,0.1518,0.1524,0.1525,0.1526,0.1526,0.1606,0.1607,0,0,0,0,0,0,0.1361,0.1365,0.1407,0.141,0.1396,0.1427,0.1432,0.1439,0.1467,0.1473,0.1462,0.1464,0.15,0.1504,0.1507,0.1575,0.1525,0.1526,0.1527,0.1605,0.1606,0.1608,0,0,0,0,0,0,0.136,0.1365,0.1406,0.139,0.1397,0.1428,0.1434,0.1439,0.1473,0.1475,0.1481,0.1494,0.1501,0.1505,0.1543,0.1574,0.1527,0.1528,0.1603,0.1605,0.1607,0.1663,0,0,0,0,0,0,0.1358,0.1364,0.1382,0.139,0.1398,0.1432,0.1434,0.1439,0.1476,0.148,0.1504,0.1507,0.1502,0.1542,0.1545,0.1575,0.1529,0.1601,0.1604,0.1606,0.1659,0.1667,0.1673,0,0,0,0,0,0.1356,0.1369,0.1382,0.1388,0.1416,0.1433,0.1438,0.146,0.1477,0.1493,0.1516,0.1508,0.156,0.1544,0.1547,0.1578,0.16,0.1603,0.1606,0.1656,0.1665,0.1673,0,0,0,0,0,0,0.1354,0.1375,0.1388,0.1409,0.143,0.144,0.1462,0.1478,0.1508,0.1523,0.1525,0.153,0.1576,0.157,0.1551,0.1609,0.1579,0.1583,0.1616,0.1625,0.1632,0.1635,0.153,0,0,0,0,0,0.1362,0.1381,0.1399,0.142,0.1433,0.1455,0.1471,0.1488,0.1509,0.1525,0.1545,0.1566,0.1586,0.1601,0.1615,0.1645,0.1642,0.1668,0.1675,0.168,0.1686,0.1707,0.1716,0.1618,0.1618,0.1618,0,0,0.1368,0.1383,0.1396,0.1422,0.1441,0.1464,0.1467,0.15,0.1528,0.1524,0.1578,0.1595,0.1601,0.1637,0.1657,0.1639,0.1709,0.1684,0.1689,0.1692,0.1711,0.1721,0.1729,0.162,0.162,0.162,0,0,0.1378,0.1405,0.1421,0.1442,0.1478,0.1491,0.1508,0.1539,0.1565,0.161,0.1619,0.1656,0.1686,0.1697,0.1704,0.1757,0.1747,0.1767,0.1803,0.1824,0.1832,0.1839,0.1853,0.1861,0.1767,0.1767,0.1767,0,0.1389,0.1407,0.143,0.1451,0.1472,0.1507,0.1529,0.1559,0.1603,0.1626,0.1638,0.1701,0.1712,0.1749,0.1774,0.1773,0.1782,0.177,0.1832,0.1839,0.1845,0.1858,0.1866,0.177,0.177,0.177,0.1769,0,0.14,0.1429,0.1443,0.1481,0.1507,0.1535,0.1573,0.1614,0.1654,0.1682,0.1744,0.1766,0.1801,0.1814,0.1814,0.1866,0.1858,0.184,0.1809,0.1858,0.1869,0.1876,0.1775,0.1774,0.1773,0.1772,0,0,0.1385,0.1439,0.1449,0.1473,0.1526,0.1547,0.16,0.1646,0.1695,0.1745,0.1798,0.1843,0.1868,0.1878,0.1888,0.1911,0.1969,0.1904,0.1903,0.1915,0.202,0.1895,0.1891,0.1966,0.1967,0.1969,0.2011,0,0.139,0.1428,0.1456,0.1506,0.1529,0.1577,0.1623,0.1677,0.1733,0.1799,0.1834,0.1897,0.1888,0.1926,0.1946,0.1971,0.199,0.1959,0.1973,0.1973,0.1854,0.1896,0.1973,0.2016,0.2018,0.2019,0.202,0,0.1385,0.1415,0.1455,0.1521,0.1538,0.1579,0.1661,0.1712,0.18,0.1847,0.1907,0.1946,0.2005,0.1991,0.2043,0.2027,0.2032,0.2039,0.204,0.1907,0.1862,0.1956,0.2033,0.2032,0.2031,0.203,0.2029,0,0.1351,0.1414,0.1447,0.147,0.1548,0.1587,0.1642,0.1731,0.1782,0.1895,0.1944,0.2011,0.206,0.208,0.2098,0.2086,0.2142,0.2118,0.2005,0.1996,0.207,0.2062,0.2146,0.2146,0.2146,0.2146,0.2146,0,0.1326,0.1361,0.1444,0.1463,0.1522,0.1587,0.1665,0.1733,0.1831,0.1893,0.1977,0.2023,0.2089,0.2123,0.2124,0.2083,0.216,0.2018,0.1999,0.2094,0.2088,0.2076,0.2067,0.2148,0.2147,0.2147,0.2147,0,0.1278,0.133,0.1378,0.147,0.1506,0.1556,0.1671,0.1719,0.1831,0.1914,0.1955,0.2053,0.21,0.2135,0.2176,0.2103,0.2089,0.2052,0.2162,0.2148,0.1926,0.192,0.1932,0.1928,0.1924,0.1921,0.1919,0,0.125,0.127,0.1375,0.1407,0.1454,0.1539,0.1587,0.1708,0.1757,0.191,0.1931,0.2028,0.2075,0.2027,0.2076,0.2062,0.2031,0.2005,0.1954,0.1923,0.1905,0.1904,0.1902,0.1914,0.1913,0.1912,0.1911,0,0.1196,0.1246,0.1285,0.1353,0.1411,0.1469,0.1554,0.1577,0.1711,0.1824,0.1869,0.1893,0.1936,0.1953,0.1952,0.1937,0.2014,0.1969,0.1976,0.1927,0.1901,0.1886,0.1889,0.1899,0.1901,0.1902,0.1903,0,0.1158,0.1171,0.1228,0.1276,0.1346,0.1373,0.1432,0.1485,0.1549,0.1714,0.1726,0.1826,0.1926,0.1888,0.1891,0.1866,0.1832,0.1759,0.1775,0.1789,0.1719,0.1664,0.1577,0,0,0,0,0,0.1111,0.1106,0.1144,0.1186,0.1252,0.1295,0.1391,0.145,0.1578,0.1568,0.1645,0.1683,0.1698,0.1747,0.1689,0.1815,0.1831,0.1739,0.1753,0.1833,0.1847,0.1775,0,0,0,0,0,0,0.1074,0.1101,0.1106,0.1098,0.1114,0.1173,0.123,0.1319,0.1322,0.146,0.1477,0.1581,0.1617,0.1715,0.1659,0.1671,0.1643,0.1804,0.1799,0.1826,0.1838,0.1849,0.178,0,0,0,0,0]},{"header":{"parameterUnit":"m.s-1","parameterCategory":2,"la1":30.2991,"la2":30.254,"lo1":-89.0895,"lo2":-89.0444,"dy":0.0017,"dx":0.0017,"nx":28,"ny":28,"refTime":"2024-02-24T03:00:00:Z","depth":"4","parameterNumber":3,"parameterNumberName":"V-component_of_CURRENTS"},"data":[0,0,0,0,0,0,0,0,0,0,0,0,0,0,0,0,0,0,0,0,0,0,0,0,0,0,0,0,0,0,0,0,0,0,0,0,0,0,0,0,0,0,0,0,0,0,0,0,0,0,0,0,0,0,0,0,0,0,0.0155,0.0155,0,0.0137,0.0137,0.0137,0.0125,0.0125,0.0125,0.0125,0.0099,0.0098,0.0098,0,0,0,0,0,0,0,0,0,0,0,0,0,0.0155,0.0156,0.0155,0.0155,0.0154,0.0137,0.0137,0.0137,0.0125,0.0125,0.0125,0.0125,0.0099,0.0098,0.0098,0,0,0,0,0,0,0,0,0,0,0,0,0,0.0148,0.0156,0.0155,0.0147,0.0146,0.0137,0.0137,0.0137,0.0125,0.0125,0.0125,0.0125,0.0099,0.0099,0.0098,0.0093,0,0,0.0095,0.0094,0,0,0,0,0,0,0,0,0.0148,0.0148,0.0148,0.0147,0.0146,0.0134,0.0128,0.0122,0.0125,0.0132,0.0125,0.0124,0.011,0.0108,0.0105,0.0092,0.009,0.0095,0.0094,0.0094,0.0093,0,0,0,0,0,0,0,0.0149,0.0148,0.0147,0.0148,0.0147,0.0136,0.0135,0.0127,0.0121,0.0132,0.0131,0.013,0.011,0.0105,0.0104,0.009,0.0095,0.0094,0.0093,0.0093,0.0067,0.0067,0,0,0,0,0,0,0.0153,0.0149,0.0148,0.0147,0.0148,0.0137,0.0135,0.0137,0.0121,0.0119,0.013,0.0129,0.0107,0.0105,0.0103,0.0103,0.0094,0.0093,0.0092,0.0068,0.0067,0.0067,0,0,0,0,0,0,0.0154,0.0154,0.0149,0.0148,0.0146,0.0137,0.0139,0.0137,0.0136,0.012,0.0118,0.0131,0.0107,0.0104,0.01,0.0102,0.0092,0.0091,0.0068,0.0068,0.0067,0.01,0,0,0,0,0,0,0.0154,0.0154,0.0158,0.0148,0.0147,0.0149,0.0139,0.0137,0.0136,0.0135,0.0121,0.0118,0.0107,0.0102,0.0099,0.01,0.0091,0.0068,0.0068,0.0067,0.0099,0.0101,0.0102,0,0,0,0,0,0.0154,0.0162,0.0158,0.0158,0.0152,0.015,0.0148,0.014,0.0136,0.0139,0.0129,0.0119,0.0099,0.0101,0.0098,0.0099,0.0068,0.0068,0.0067,0.0098,0.01,0.0102,0,0,0,0,0,0,0.0164,0.0161,0.0157,0.0163,0.0159,0.0148,0.0151,0.0144,0.0138,0.0139,0.0122,0.0119,0.0115,0.0102,0.0105,0.009,0.008,0.0079,0.0104,0.0106,0.0108,0.0119,0.009,0,0,0,0,0,0.0168,0.0174,0.0167,0.0172,0.0171,0.0161,0.016,0.0155,0.0149,0.0146,0.0135,0.0122,0.011,0.0105,0.0094,0.0089,0.0067,0.0085,0.0087,0.0089,0.0095,0.0059,0.0058,0.0067,0.0067,0.0067,0,0,0.0173,0.0172,0.0175,0.0174,0.017,0.0177,0.016,0.0163,0.0167,0.0144,0.0147,0.013,0.0111,0.0105,0.0101,0.0096,0.0073,0.0089,0.009,0.0096,0.0059,0.0058,0.0057,0.0067,0.0067,0.0067,0,0,0.0187,0.0186,0.0196,0.0196,0.0194,0.0191,0.0194,0.0186,0.0181,0.0181,0.0162,0.0148,0.0136,0.0118,0.0108,0.0112,0.0085,0.0107,0.0126,0.0091,0.009,0.0089,0.0056,0.0052,0.0107,0.0107,0.0107,0,0.0193,0.0206,0.0198,0.0208,0.0214,0.02,0.0215,0.0207,0.0199,0.0196,0.0188,0.0159,0.0141,0.0127,0.0128,0.0117,0.0094,0.0121,0.0094,0.0092,0.009,0.0057,0.0052,0.0109,0.0108,0.0108,0.0108,0,0.0214,0.0226,0.0233,0.0244,0.0248,0.0258,0.0251,0.0251,0.0244,0.0234,0.022,0.019,0.0174,0.016,0.0148,0.0127,0.0114,0.0101,0.009,0.0092,0.0056,0.005,0.0111,0.011,0.011,0.0109,0,0,0.0225,0.0245,0.0248,0.0263,0.027,0.0277,0.0285,0.0287,0.0295,0.0271,0.0271,0.0238,0.0218,0.0205,0.0177,0.0144,0.011,0.0124,0.0121,0.0096,0.0034,0.0028,0.002,0.0093,0.0092,0.0091,0.0012,0,0.0245,0.0275,0.028,0.0312,0.0329,0.0325,0.0338,0.0336,0.0327,0.0322,0.0278,0.0271,0.0236,0.023,0.019,0.0134,0.0097,0.0133,0.0033,0.003,0.0028,0.0014,0.0089,0.0008,0.0007,0.0006,0.0005,0,0.0265,0.0285,0.0322,0.0353,0.0361,0.0381,0.04,0.0409,0.0394,0.0387,0.036,0.0329,0.0282,0.0252,0.0148,0.0174,0.0111,0.0059,0.0055,0.0036,0.0013,0.0006,-0.0006,-0.0005,-0.0004,-0.0004,-0.0003,0,0.0279,0.0314,0.0348,0.0359,0.039,0.041,0.0428,0.0431,0.0446,0.0429,0.0433,0.0368,0.0342,0.0252,0.0147,0.0149,0.0028,0.0014,-0.0055,-0.0057,-0.0041,-0.0039,-0.0062,-0.0062,-0.0062,-0.0061,-0.0061,0,0.0298,0.0324,0.0361,0.038,0.043,0.044,0.0486,0.0491,0.0502,0.0524,0.0471,0.0461,0.0341,0.0259,0.0158,0.0034,0.0032,-0.0054,-0.0078,-0.0027,-0.0022,-0.0046,-0.0043,-0.0064,-0.0064,-0.0063,-0.0063,0,0.0306,0.0329,0.0373,0.0418,0.044,0.0475,0.0536,0.0561,0.0569,0.0593,0.0592,0.0527,0.042,0.0289,0.0138,0.0056,-0.0066,-0.0111,-0.0044,-0.0064,-0.0131,-0.0126,-0.0195,-0.0196,-0.0197,-0.0197,-0.0198,0,0.0311,0.0336,0.0403,0.0439,0.0466,0.0523,0.0565,0.0595,0.0625,0.0631,0.064,0.0554,0.0492,0.0276,0.0133,-0.0066,-0.0094,-0.0155,-0.0146,-0.0128,-0.0145,-0.0139,-0.0132,-0.0199,-0.0199,-0.0199,-0.02,0,0.0324,0.0351,0.039,0.0465,0.0521,0.0584,0.0644,0.0671,0.0703,0.0707,0.0682,0.0577,0.0452,0.0281,0.0125,-0.0018,-0.0114,-0.0163,-0.0163,-0.0155,-0.0134,-0.0149,-0.0142,-0.0202,-0.0202,-0.0202,-0.0201,0,0.0335,0.0366,0.0423,0.049,0.056,0.0626,0.0658,0.0695,0.0726,0.0731,0.0718,0.059,0.0518,0.0304,0.016,0.0019,-0.0018,-0.0058,-0.0064,-0.0063,-0.0003,0.0045,0.0009,0,0,0,0,0,0.0346,0.0384,0.0443,0.0519,0.0587,0.0636,0.0703,0.0727,0.0756,0.0746,0.0738,0.0625,0.0419,0.0326,0.0183,0.0129,-0.0055,-0.0044,-0.0106,-0.0217,-0.0214,-0.0166,0,0,0,0,0,0,0.0354,0.0409,0.0441,0.0531,0.0588,0.067,0.0717,0.0738,0.0734,0.0739,0.0628,0.059,0.0381,0.0501,0.0181,0.0138,0.0079,-0.0138,-0.0141,-0.0218,-0.0216,-0.0213,-0.0164,0,0,0,0,0]}]]